Weather in Capetown

South Africa     33°55′18″S   18°25′22″E
temp.,
°C
wind,
m/s
gust,
m/s
humid.,
%
clouds,
%
prec.,
mm/h
press.,
hPa
HPBL,
m
31 july, sat
sat3123:00+13se11900 0.0 102817
02:00+13se11890 0.0 102813
05:00+12ne11895 0.0 102615
08:00+13sw1172100 0.0 102711
11:00+18nnw2348100 0.0 1026123
14:00+21nw243461 0.0 1024452
17:00+19nw234396 0.0 1023143
20:00+16nnw2352100 0.0 102442
1 august, sun
sun123:00+15nw235997 0.0 102438
02:00+14wnw116371 0.0 102315
05:00+13nw22759 0.0 102325
08:00+12nw22884 0.0 102529
11:00+17wnw12716 0.0 1025529
14:00+19w11576 0.0 1024665
17:00+18sw115933 0.0 1024562
20:00+15sse227366 0.0 102680
2 august, mon
mon223:00+14sse238359 0.0 1027101
02:00+14sse359249 0.0 1025157
05:00+13s349312 0.0 1024101
08:00+13sse22886 0.0 102446
11:00+17se226038 0.0 1023250
14:00+20sse21485 0.0 1020420
17:00+19s22540 0.0 1019199
20:00+16sse11640 0.0 101812
3 august, tue
tue323:00+15ese11650 0.0 101811
02:00+15ene11610 0.0 101611
05:00+14ne11530 0.0 101411
08:00+14ese00460 0.0 101411
11:00+19se22390 0.0 1015192
14:00+22ese21345 0.0 1013331
17:00+21sse22415 0.0 101372
20:00+16s23645 0.0 1014105
4 august, wed
wed423:00+15sse24830 0.0 1016129
02:00+14sse23921 0.0 101667
05:00+13sse23964 0.0 101761
08:00+13s229691 0.0 101848
11:00+17s2270100 0.0 1019369
14:00+18s32648 0.0 1019623
17:00+16sse33755 0.0 1019403
20:00+15s24871 0.0 1020191